Regional Weather Roundup
Issued by NWS

Home | Current Version | Previous Version | Text Only | Print | Product List | Glossary On
Versions: 1 2 3 4 5 6 7 8 9 10 11 12 13 14 15 16 17 18 19 20 21 22 23 24 25 26 27 28 29 30 31 32 33 34 35 36 37 38 39 40 41 42 43 44 45 46 47 48 49 50
000
ASUS43 KTOP 192359
RWRKS

WEATHER ROUNDUP FOR KANSAS
NATIONAL WEATHER SERVICE GOODLAND KS
600 PM CST FRI DEC 19 2014

NOTE:  "FAIR" INDICATES FEW OR NO CLOUDS BELOW 12,000 FEET WITH NO
SIGNIFICANT WEATHER AND/OR OBSTRUCTIONS TO VISIBILITY.

KSZ001>006-013>018-027>032-041>047-200100-
NORTHWEST KANSAS

CITY           SKY/WX    TMP DP  RH WIND       PRES   REMARKS
GOODLAND       CLEAR     37  24  59 SW8       30.05S
6HR MIN TEMP:  37; 6HR MAX TEMP:  49;

HAYS           CLEAR     39  28  65 S10       30.09S WCI  32
HILL CITY      CLEAR     41  27  57 SW7       30.06F
6HR MIN TEMP:  37; 6HR MAX TEMP:  52;

RUSSELL        CLEAR     35  34  96 S10       30.09S WCI  27
6HR MIN TEMP:  35; 6HR MAX TEMP:  42;

$$

KSZ061>065-074>080-084>089-200100-
SOUTHWEST KANSAS

CITY           SKY/WX    TMP DP  RH WIND       PRES   REMARKS
DODGE CITY     CLEAR     36  31  82 S7        30.11F
6HR MIN TEMP:  36; 6HR MAX TEMP:  43;

ELKHART          N/A    N/A N/A N/A MISG        N/A
GARDEN CITY    CLEAR     35  32  88 S8        30.09F
6HR MIN TEMP:  35; 6HR MAX TEMP:  46;

GREAT BEND     CLEAR     36  28  75 S10       30.13S WCI  28
LIBERAL        CLEAR     39  32  75 S3        30.13R
$$

KSZ066>073-081>083-090>101-200100-
SOUTHEAST KANSAS

CITY           SKY/WX    TMP DP  RH WIND       PRES   REMARKS
CHANUTE        CLOUDY    35  34  96 NW3       30.21S FOG
6HR MIN TEMP:  34; 6HR MAX TEMP:  35;

COFFEYVILLE    CLOUDY    37  35  92 NW3       30.22R FOG
6HR MIN TEMP:  37; 6HR MAX TEMP:  39;

HUTCHINSON     CLOUDY    37  34  89 S7        30.16S
6HR MIN TEMP:  34; 6HR MAX TEMP:  39;

MEDICINE LODGE   N/A     38  35  89 S6        30.17R
NEWTON         CLOUDY    34  28  80 S7        30.18S
PARSONS        CLOUDY    37  35  92 NW3       30.22R FOG
6HR MIN TEMP:  37; 6HR MAX TEMP:  39;

WICHITA INTL   CLOUDY    37  33  85 S6        30.18R
6HR MIN TEMP:  34; 6HR MAX TEMP:  37;

WICHITA JABRA  CLOUDY    35  31  85 CALM      30.17S
6HR MIN TEMP:  32; 6HR MAX TEMP:  35;

WICHITA MCCONL CLOUDY    36  33  88 SE5       30.18R
WINFIELD       CLOUDY    38  32  79 CALM      30.20S
6HR MIN TEMP:  35; 6HR MAX TEMP:  39;

$$

KSZ007>012-019>026-033>040-048>060-102>105-200100-
NORTHEAST KANSAS

CITY           SKY/WX    TMP DP  RH WIND       PRES   REMARKS
CONCORDIA      CLOUDY    32  31  96 S7        30.13S
6HR MIN TEMP:  31; 6HR MAX TEMP:  33;

EMPORIA        CLOUDY    32  29  88 SW5       30.19R
6HR MIN TEMP:  31; 6HR MAX TEMP:  33;

LAWRENCE       CLOUDY    33  28  81 SW5       30.21S
6HR MIN TEMP:  32; 6HR MAX TEMP:  34;

MANHATTAN      CLOUDY    34  30  85 S7        30.18S
6HR MIN TEMP:  31; 6HR MAX TEMP:  34;

OLATHE IND     CLOUDY    32  31  96 SE3       30.20S FOG
6HR MIN TEMP:  32; 6HR MAX TEMP:  33; 6HR PCP: TRACE;

OLATHE EXE     CLOUDY    33  31  92 CALM      30.19S
6HR MIN TEMP:  32; 6HR MAX TEMP:  34;

SALINA         CLEAR     34  31  88 SE7       30.16S
6HR MIN TEMP:  32; 6HR MAX TEMP:  35;

TOPEKA BILLARD CLOUDY    33  27  78 SW6       30.21S
6HR MIN TEMP:  32; 6HR MAX TEMP:  34;

TOPEKA FORBES  CLOUDY    33  28  81 CALM      30.19F
6HR MIN TEMP:  32; 6HR MAX TEMP:  33; 6HR PCP: TRACE;

$$



USA.gov is the U.S. government's official web portal to all federal, state and local government web resources and services.